EW2672 Weather Reports


Display with metric or nautical units.
time (UTC)temp
F
wind
direction
speed
MPH
gust
MPH
rain 1hr
in
rain 24hr
in
rain mn
in
humidity
%
barometer
mb
20210917233751 93 0.0 3.0 0.00 0.00 0.00 47 1014.4
20210917233148 93 0.0 1.0 0.00 0.00 0.00 46 1014.4
20210917232545 94 0.0 2.0 0.00 0.00 0.00 46 1014.3
20210917231942 94 0.0 2.0 0.00 0.00 0.00 46 1014.3
20210917231334 94 0.0 3.0 0.00 0.00 0.00 46 1014.2
20210917230731 94 1.0 3.0 0.00 0.00 0.00 45 1014.2
20210917230128 94 0.0 2.0 0.00 0.00 0.00 46 1014.2
20210917225525 94 0.0 2.0 0.00 0.00 0.00 47 1014.2
20210917224922 93 0.0 3.0 0.00 0.00 0.00 48 1014.1
20210917224319 93 0.0 3.0 0.00 0.00 0.00 47 1014.1
20210917223716 93 0.0 1.0 0.00 0.00 0.00 46 1014.2
20210917223113 94 0.0 2.0 0.00 0.00 0.00 46 1014.1
20210917222510 95 0.0 5.0 0.00 0.00 0.00 44 1014.1
20210917221907 96 353 1.0 5.0 0.00 0.00 0.00 44 1014.0
20210917221304 96 0.0 3.0 0.00 0.00 0.00 45 1014.0
20210917220700 96 0.0 3.0 0.00 0.00 0.00 45 1014.0
20210917220057 96 123 1.0 3.0 0.00 0.00 0.00 44 1014.0
20210917215454 96 1.0 3.0 0.00 0.00 0.00 45 1014.0
20210917214851 95 0.0 3.0 0.00 0.00 0.00 45 1013.9
20210917214248 95 0.0 2.0 0.00 0.00 0.00 45 1013.9
20210917213645 96 0.0 3.0 0.00 0.00 0.00 44 1014.0
20210917213042 97 73 1.0 5.0 0.00 0.00 0.00 43 1013.9
20210917212439 97 170 2.0 5.0 0.00 0.00 0.00 45 1014.0
20210917211836 97 0.0 2.0 0.00 0.00 0.00 44 1013.9
20210917211233 97 0.0 3.0 0.00 0.00 0.00 45 1014.0
20210917210630 97 0.0 5.0 0.00 0.00 0.00 43 1014.0
20210917210027 97 0.0 3.0 0.00 0.00 0.00 42 1014.0
20210917205424 97 318 1.0 3.0 0.00 0.00 0.00 43 1014.0
20210917204821 96 0.0 6.0 0.00 0.00 0.00 46 1014.0
20210917204218 95 0.0 6.0 0.00 0.00 0.00 47 1014.1
20210917203615 95 0.0 4.0 0.00 0.00 0.00 47 1014.2
20210917203012 95 1.0 4.0 0.00 0.00 0.00 47 1014.3
20210917202409 95 73 1.0 2.0 0.00 0.00 0.00 47 1014.3
20210917201806 95 0.0 4.0 0.00 0.00 0.00 47 1014.4
20210917201203 95 38 1.0 4.0 0.00 0.00 0.00 48 1014.5
20210917200600 94 0.0 3.0 0.00 0.00 0.00 49 1014.6
20210917195957 94 124 1.0 3.0 0.00 0.00 0.00 51 1014.7
20210917195354 93 0.0 2.0 0.00 0.00 0.00 51 1014.7
20210917194751 93 0.0 3.0 0.00 0.00 0.00 50 1014.8
20210917194147 94 0.0 4.0 0.00 0.00 0.00 49 1014.9
20210917193544 94 119 1.0 3.0 0.00 0.00 0.00 48 1015.0
20210917192941 94 0.0 4.0 0.00 0.00 0.00 49 1015.1
20210917192338 94 0.0 4.0 0.00 0.00 0.00 49 1015.0
20210917191735 93 1.0 3.0 0.00 0.00 0.00 52 1015.1
20210917191132 92 0.0 5.0 0.00 0.00 0.00 50 1015.2
20210917190529 94 0.0 1.0 0.00 0.00 0.00 49 1015.3
20210917185926 94 0.0 3.0 0.00 0.00 0.00 51 1015.4
20210917185323 93 0.0 3.0 0.00 0.00 0.00 52 1015.5
20210917184720 92 0.0 3.0 0.00 0.00 0.00 50 1015.5
20210917184117 93 0.0 2.0 0.00 0.00 0.00 50 1015.6
20210917183514 93 0.0 2.0 0.00 0.00 0.00 50 1015.7
20210917182911 93 0.0 1.0 0.00 0.00 0.00 52 1015.7
20210917182308 92 0.0 4.0 0.00 0.00 0.00 53 1015.8
20210917181705 92 200 2.0 4.0 0.00 0.00 0.00 53 1015.8
20210917181102 93 0.0 2.0 0.00 0.00 0.00 54 1015.8
20210917180459 92 0.0 3.0 0.00 0.00 0.00 55 1015.9
20210917175856 91 213 1.0 4.0 0.00 0.00 0.00 55 1016.0
20210917175253 91 0.0 3.0 0.00 0.00 0.00 56 1016.0
20210917174650 90 202 1.0 5.0 0.00 0.00 0.00 57 1016.1
20210917174047 90 198 1.0 5.0 0.00 0.00 0.00 57 1016.2
20210917173444 91 185 2.0 4.0 0.00 0.00 0.00 57 1016.3
20210917172841 90 0.0 3.0 0.00 0.00 0.00 56 1016.3
20210917172238 89 0.0 4.0 0.00 0.00 0.00 58 1016.4
20210917171635 89 0.0 4.0 0.00 0.00 0.00 58 1016.4
20210917171032 88 18 1.0 4.0 0.00 0.00 0.00 60 1016.4
20210917170428 88 19 2.0 4.0 0.00 0.00 0.00 61 1016.4
20210917165825 88 205 1.0 4.0 0.00 0.00 0.00 61 1016.5
20210917165222 88 0.0 4.0 0.00 0.00 0.00 61 1016.5
20210917164619 87 0.0 3.0 0.00 0.00 0.00 62 1016.6
20210917164017 87 208 1.0 3.0 0.00 0.00 0.00 65 1016.7
20210917163413 87 204 1.0 6.0 0.00 0.00 0.00 66 1016.7
20210917162810 86 173 1.0 4.0 0.00 0.00 0.00 68 1016.7
20210917162207 85 0.0 4.0 0.00 0.00 0.00 68 1016.7
20210917161604 85 0.0 3.0 0.00 0.00 0.00 69 1016.8
20210917161001 85 1.0 5.0 0.00 0.00 0.00 70 1016.8
20210917160358 85 194 2.0 5.0 0.00 0.00 0.00 71 1016.9
20210917155755 84 251 1.0 3.0 0.00 0.00 0.00 73 1016.9
20210917155152 83 167 1.0 4.0 0.00 0.00 0.00 73 1016.9
20210917154549 83 230 1.0 4.0 0.00 0.00 0.00 75 1016.9
20210917153946 82 195 1.0 3.0 0.00 0.00 0.00 77 1016.9
20210917153343 82 0.0 4.0 0.00 0.00 0.00 79 1016.8
20210917152740 81 191 2.0 4.0 0.00 0.00 0.00 80 1016.8
20210917152137 80 180 3.0 4.0 0.00 0.00 0.00 82 1016.8
20210917151534 80 211 1.0 4.0 0.00 0.00 0.00 84 1016.8
20210917150931 79 183 1.0 4.0 0.00 0.00 0.00 85 1016.7
20210917150328 78 193 1.0 4.0 0.00 0.00 0.00 87 1016.7
20210917145725 78 292 1.0 3.0 0.00 0.00 0.00 88 1016.7
20210917145122 77 174 1.0 7.0 0.00 0.00 0.00 89 1016.7
20210917144519 76 261 2.0 7.0 0.00 0.00 0.00 91 1016.6
20210917143916 76 294 1.0 4.0 0.00 0.00 0.00 92 1016.6
20210917143312 75 171 1.0 4.0 0.00 0.00 0.00 93 1016.6
20210917142709 74 1.0 4.0 0.00 0.00 0.00 94 1016.6
20210917142106 74 191 1.0 5.0 0.00 0.00 0.00 96 1016.5
20210917141503 73 210 1.0 4.0 0.00 0.00 0.00 96 1016.5
20210917140900 73 1.0 3.0 0.00 0.00 0.00 97 1016.4
20210917140257 73 172 1.0 3.0 0.00 0.00 0.00 98 1016.4
20210917135654 72 184 1.0 3.0 0.00 0.00 0.00 98 1016.4
20210917135051 72 0.0 4.0 0.00 0.00 0.00 98 1016.4
20210917134448 72 0.0 2.0 0.00 0.00 0.00 98 1016.3
20210917133845 71 0.0 2.0 0.00 0.00 0.00 99 1016.3
20210917133242 71 0.0 2.0 0.00 0.00 0.00 98 1016.2
20210917132639 71 0.0 2.0 0.00 0.00 0.00 99 1016.1
20210917132036 70 0.0 0.0 0.00 0.00 0.00 99 1015.9
20210917131433 70 0.0 0.0 0.00 0.00 0.00 99 1015.8
20210917130830 69 0.0 0.0 0.00 0.00 0.00 98 1015.7
20210917130227 69 0.0 0.0 0.00 0.00 0.00 98 1015.7
20210917125624 69 0.0 0.0 0.00 0.00 0.00 98 1015.6
20210917125021 69 0.0 0.0 0.00 0.00 0.00 98 1015.6
20210917124418 68 0.0 0.0 0.00 0.00 0.00 98 1015.5
20210917123815 68 0.0 0.0 0.00 0.00 0.00 97 1015.4
20210917123212 68 0.0 0.0 0.00 0.00 0.00 97 1015.3
20210917122609 68 0.0 0.0 0.00 0.00 0.00 97 1015.3
20210917122006 69 0.0 0.0 0.00 0.00 0.00 97 1015.2
20210917121403 69 0.0 0.0 0.00 0.00 0.00 97 1015.2
20210917120759 69 0.0 0.0 0.00 0.00 0.00 97 1015.1
20210917120156 69 0.0 0.0 0.00 0.00 0.00 97 1015.0
20210917115553 69 0.0 0.0 0.00 0.00 0.00 97 1014.9
20210917114950 69 0.0 0.0 0.00 0.00 0.00 97 1014.9
20210917114347 69 0.0 0.0 0.00 0.00 0.00 97 1014.9
20210917113744 69 0.0 0.0 0.00 0.00 0.00 97 1014.8
20210917113141 69 0.0 0.0 0.00 0.00 0.00 96 1014.7
20210917112538 69 0.0 0.0 0.00 0.00 0.00 96 1014.7
20210917111935 69 0.0 0.0 0.00 0.00 0.00 96 1014.6
20210917111332 69 0.0 0.0 0.00 0.00 0.00 96 1014.6
20210917110729 69 0.0 0.0 0.00 0.00 0.00 96 1014.5
20210917110126 69 0.0 0.0 0.00 0.00 0.00 96 1014.5
20210917105523 69 0.0 0.0 0.00 0.00 0.00 96 1014.5
20210917104920 69 0.0 0.0 0.00 0.00 0.00 96 1014.4
20210917104317 69 0.0 0.0 0.00 0.00 0.00 96 1014.4
20210917103714 70 0.0 0.0 0.00 0.00 0.00 96 1014.3
20210917103111 70 0.0 0.0 0.00 0.00 0.00 96 1014.3
20210917102508 70 0.0 0.0 0.00 0.00 0.00 96 1014.3
20210917101905 70 0.0 0.0 0.00 0.00 0.00 96 1014.3
20210917101302 70 0.0 0.0 0.00 0.00 0.00 95 1014.3
20210917100659 70 0.0 0.0 0.00 0.00 0.00 95 1014.2
20210917100056 70 0.0 0.0 0.00 0.00 0.00 95 1014.1
20210917095453 70 0.0 0.0 0.00 0.00 0.00 95 1014.1
20210917094850 70 0.0 0.0 0.00 0.00 0.00 95 1014.1
20210917094247 71 0.0 0.0 0.00 0.00 0.00 95 1014.1
20210917093643 71 0.0 0.0 0.00 0.00 0.00 95 1014.1
20210917093040 71 0.0 0.0 0.00 0.00 0.00 95 1014.1
20210917092437 71 0.0 0.0 0.00 0.00 0.00 95 1014.1
20210917091834 71 0.0 0.0 0.00 0.00 0.00 94 1014.1
20210917091231 71 0.0 0.0 0.00 0.00 0.00 95 1014.1
20210917090628 71 0.0 0.0 0.00 0.00 0.00 94 1014.1
20210917090025 71 0.0 0.0 0.00 0.00 0.00 94 1014.1
20210917085422 71 0.0 0.0 0.00 0.00 0.00 94 1014.0
20210917084819 71 0.0 0.0 0.00 0.00 0.00 94 1014.1
20210917084216 71 0.0 0.0 0.00 0.00 0.00 93 1014.1
20210917083613 71 0.0 0.0 0.00 0.00 0.00 93 1014.1
20210917083010 71 0.0 0.0 0.00 0.00 0.00 93 1014.2
20210917082407 71 0.0 0.0 0.00 0.00 0.00 93 1014.1
20210917081804 72 0.0 0.0 0.00 0.00 0.00 93 1014.1
20210917081201 72 0.0 0.0 0.00 0.00 0.00 92 1014.0
20210917080558 72 0.0 0.0 0.00 0.00 0.00 92 1014.1
20210917075955 72 0.0 0.0 0.00 0.00 0.00 92 1014.1
20210917075352 72 0.0 0.0 0.00 0.00 0.00 92 1014.1
20210917074749 72 0.0 0.0 0.00 0.00 0.00 92 1014.0
20210917074146 72 0.0 0.0 0.00 0.00 0.00 92 1014.1
20210917073543 72 0.0 0.0 0.00 0.00 0.00 91 1014.1
20210917072940 72 0.0 0.0 0.00 0.00 0.00 91 1014.1
20210917072337 72 0.0 0.0 0.00 0.00 0.00 91 1014.1
20210917071734 73 0.0 0.0 0.00 0.00 0.00 90 1014.1
20210917071130 73 0.0 1.0 0.00 0.00 0.00 90 1014.1
20210917070527 73 0.0 0.0 0.00 0.00 0.00 90 1014.1
20210917065924 73 0.0 0.0 0.00 0.00 0.00 90 1014.0
20210917065321 73 0.0 0.0 0.00 0.00 0.00 89 1014.1
20210917064718 73 0.0 0.0 0.00 0.00 0.00 89 1014.1
20210917064115 73 0.0 0.0 0.00 0.00 0.00 88 1014.2
20210917063512 73 0.0 0.0 0.00 0.00 0.00 88 1014.2
20210917062909 73 0.0 1.0 0.00 0.00 0.00 88 1014.3
20210917062306 73 0.0 1.0 0.00 0.00 0.00 88 1014.3
20210917061703 73 0.0 0.0 0.00 0.00 0.00 87 1014.4
20210917061100 73 0.0 1.0 0.00 0.00 0.00 87 1014.3
20210917060457 73 0.0 0.0 0.00 0.00 0.00 86 1014.2
20210917055854 74 0.0 0.0 0.00 0.00 0.00 85 1014.3
20210917055251 74 0.0 0.0 0.00 0.00 0.00 85 1014.3
20210917054648 74 0.0 0.0 0.00 0.00 0.00 85 1014.2
20210917054045 74 0.0 0.0 0.00 0.00 0.00 84 1014.2
20210917053442 74 0.0 0.0 0.00 0.00 0.00 84 1014.3
20210917052839 75 0.0 0.0 0.00 0.00 0.00 84 1014.2
20210917052236 75 0.0 2.0 0.00 0.00 0.00 83 1014.2
20210917051633 75 0.0 0.0 0.00 0.00 0.00 82 1014.3
20210917051030 75 0.0 0.0 0.00 0.00 0.00 82 1014.2
20210917050427 75 0.0 0.0 0.00 0.00 0.00 82 1014.2
20210917045824 76 0.0 1.0 0.00 0.00 0.00 81 1014.3
20210917045221 76 0.0 2.0 0.00 0.00 0.00 81 1014.2
20210917044618 76 0.0 0.0 0.00 0.00 0.00 80 1014.2
20210917044014 76 0.0 1.0 0.00 0.00 0.00 80 1014.1
20210917043411 76 0.0 2.0 0.00 0.00 0.00 79 1014.1
20210917042808 76 0.0 2.0 0.00 0.00 0.00 79 1014.1
20210917042205 77 0.0 3.0 0.00 0.00 0.00 79 1014.1
20210917041602 77 0.0 5.0 0.00 0.00 0.00 79 1014.1
20210917040959 77 0.0 4.0 0.00 0.00 0.00 78 1014.0
20210917040356 77 0.0 2.0 0.00 0.00 0.00 78 1014.0
20210917035753 77 0.0 2.0 0.00 0.00 0.00 78 1014.0
20210917035150 77 0.0 0.0 0.00 0.00 0.00 78 1013.9
20210917034547 77 0.0 2.0 0.00 0.00 0.00 77 1014.0
20210917033944 77 0.0 2.0 0.00 0.00 0.00 76 1014.0
20210917033341 78 0.0 0.0 0.00 0.00 0.00 76 1013.9
20210917032738 78 0.0 0.0 0.00 0.00 0.00 75 1013.8
20210917032135 78 0.0 0.0 0.00 0.00 0.00 74 1013.7
20210917031532 78 0.0 2.0 0.00 0.00 0.00 74 1013.7
20210917030929 79 0.0 0.0 0.00 0.00 0.00 73 1013.8
20210917030326 79 0.0 1.0 0.00 0.00 0.00 73 1013.7
20210917025723 79 0.0 4.0 0.00 0.00 0.00 73 1013.6
20210917025120 79 0.0 3.0 0.00 0.00 0.00 72 1013.5
20210917024517 79 0.0 3.0 0.00 0.00 0.00 71 1013.3
20210917023914 79 0.0 4.0 0.00 0.00 0.00 71 1013.3
20210917023311 79 0.0 2.0 0.00 0.00 0.00 71 1013.2
20210917022708 79 0.0 3.0 0.00 0.00 0.00 71 1013.1
20210917022105 79 0.0 3.0 0.00 0.00 0.00 70 1013.0
20210917021502 79 0.0 1.0 0.00 0.00 0.00 70 1012.9
20210917020858 79 0.0 2.0 0.00 0.00 0.00 70 1012.8
20210917020255 80 0.0 0.0 0.00 0.00 0.00 69 1012.5
20210917015652 80 0.0 0.0 0.00 0.00 0.00 69 1012.5
20210917015049 80 0.0 0.0 0.00 0.00 0.00 69 1012.4
20210917014446 80 0.0 0.0 0.00 0.00 0.00 68 1012.2
20210917013843 80 0.0 0.0 0.00 0.00 0.00 67 1012.1
20210917013240 80 0.0 0.0 0.00 0.00 0.00 67 1012.1
20210917012637 81 0.0 0.0 0.00 0.00 0.00 66 1012.0
20210917012034 81 0.0 0.0 0.00 0.00 0.00 65 1012.0
20210917011431 81 0.0 0.0 0.00 0.00 0.00 64 1011.8
20210917010828 82 0.0 0.0 0.00 0.00 0.00 63 1011.7
20210917010225 82 0.0 0.0 0.00 0.00 0.00 62 1011.6
20210917005622 83 0.0 0.0 0.00 0.00 0.00 61 1011.6
20210917005019 84 0.0 0.0 0.00 0.00 0.00 60 1011.6
20210917004416 84 0.0 0.0 0.00 0.00 0.00 59 1011.5
20210917003813 85 0.0 0.0 0.00 0.00 0.00 58 1011.5
20210917003210 86 0.0 0.0 0.00 0.00 0.00 56 1011.4
20210917002607 86 0.0 0.0 0.00 0.00 0.00 55 1011.4
20210917002004 87 0.0 0.0 0.00 0.00 0.00 54 1011.4
20210917001401 88 0.0 2.0 0.00 0.00 0.00 54 1011.3
20210917000758 89 0.0 2.0 0.00 0.00 0.00 52 1011.3
20210917000155 89 0.0 2.0 0.00 0.00 0.00 52 1011.3
20210916235552 89 0.0 2.0 0.00 0.00 0.00 51 1011.2
20210916234949 90 0.0 2.0 0.00 0.00 0.00 50 1011.2
20210916234346 90 0.0 3.0 0.00 0.00 0.00 50 1011.0